Hourly Data Report for September 24, 2017

All times are specified in Local Standard Time (LST). Add 1 hour to adjust for Daylight Saving Time where and when it is observed.

HALL BEACH A
NUNAVUT

68°46'33.000" N
81°14'33.000" W
9.10 m
2402354
71293
YUX

Download Data

Hourly Data (September 2017)
Hourly Data Report for September 24, 2017
Temp Definition
°C
Dew Point Temp Definition
°C
Rel Hum Definition
%
Wind Dir Definition
10's deg

Wind Spd Definition
km/h
Visibility Definition
km
Stn Press Definition
kPa
Hmdx Definition


Wind Chill Definition


Weather Definition


TIME
00:00 Legend Double Dagger -1.5 -3.4 87 33 32 14.5 101.30   -9 Snow
01:00 Legend Double Dagger -1.7 -3.9 85 32 37 16.1 101.30   -9 LegendNANA
02:00 Legend Double Dagger -1.6 -4.5 81 33 34 16.1 101.30   -9 LegendNANA
03:00 Legend Double Dagger -1.8 -4.4 83 33 30 16.1 101.33   -9 LegendNANA
04:00 Legend Double Dagger -1.8 -4.5 82 34 34 16.1 101.32   -9 LegendNANA
05:00 Legend Double Dagger -1.6 -4.4 82 34 35 16.1 101.32   -9 LegendNANA
06:00 Legend Double Dagger -1.5 -4.8 78 36 30 16.1 101.33   -8 LegendNANA
07:00 Legend Double Dagger -1.6 -5.1 77 35 30 16.1 101.36   -9 LegendNANA
08:00 Legend Double Dagger -1.4 -4.6 79 1 30 16.1 101.36   -8 LegendNANA
09:00 Legend Double Dagger -1.3 -3.5 85 34 24 16.1 101.35   -7 LegendNANA
10:00 Legend Double Dagger -1.1 -4.0 81 33 28 16.1 101.33   -8 LegendNANA
11:00 Legend Double Dagger -1.2 -4.5 78 35 26 16.1 101.33   -8 LegendNANA
12:00 Legend Double Dagger -1.0 -4.2 79 35 22 16.1 101.29   -7 LegendNANA
13:00 Legend Double Dagger -0.7 -3.9 79 33 21 16.1 101.30   -6 LegendNANA
14:00 Legend Double Dagger -0.6 -3.9 78 33 28 16.1 101.28   -7 LegendNANA
15:00 Legend Double Dagger -0.5 -3.9 78 33 26 16.1 101.26   -7 LegendNANA
16:00 Legend Double Dagger -0.4 -3.9 77 31 24 16.1 101.24   -6 LegendNANA
17:00 Legend Double Dagger -0.5 -3.9 78 32 30 16.1 101.20   -7 LegendNANA
18:00 Legend Double Dagger -0.7 -3.8 80 33 28 16.1 101.20   -7 LegendNANA
19:00 Legend Double Dagger -0.7 -3.8 80 33 30 16.1 101.16   -7 LegendNANA
20:00 Legend Double Dagger -0.8 -3.5 82 34 24 16.1 101.15   -7 LegendNANA
21:00 Legend Double Dagger -0.7 -3.4 82 31 32 16.1 101.13   -8 LegendNANA
22:00 Legend Double Dagger -2.2 -3.9 88 31 24 16.1 101.12   -9 LegendNANA
23:00 Legend Double Dagger -1.9 -3.8 87 32 28 16.1 101.07   -9 LegendNANA

Notes on Data Quality.

Legend

  • E = Estimated
  • M = Missing
  • NA = Not Available
  • ‡ = Partner data that is not subject to review by the National Climate Archives
Date modified: